Location: Schommer Observatory
(40.5200°N, 74.4500°W)
Time: 07:33:15
(UTC-05:00)

Hubble Space Telescope - Pass Details

Date: 19 November 2017
Orbit: 537 x 541 km, 28.5° (Epoch: 21 November)

Event Time Altitude Azimuth Distance (km) Brightness Sun altitude
Exits shadow 05:54:50 - 235° (SW) 2,472 3.8 -10.4°
Reaches altitude 10° 05:57:15 10° 215° (SW) 1,779 3.2 -10.0°
Maximum altitude 05:59:40 15° 179° (S) 1,477 3.2 -9.6°
Drops below altitude 10° 06:02:06 10° 143° (SE) 1,780 4.3 -9.1°
Sets 06:05:07 0° 120° (ESE) 2,672 6.3 -8.6°
